Orbital Elements at Epoch 2459000.5 (2020-May-31.0) TDB
Reference: JPL 26 (heliocentric ecliptic J2000)
Element | Value | Uncertainty (1-sigma) | Units |
e | .2288890470843851 | 6.5296e-08 | |
a | 2.566118492886961 | 1.3515e-08 | au |
q | 1.978762076344446 | 1.7318e-07 | au |
i | 5.849600804045913 | 3.4634e-06 | deg |
node | 131.4952998260902 | 4.9077e-05 | deg |
peri | 268.0408622180587 | 4.9956e-05 | deg |
M | 128.2707448821894 | 9.8975e-06 | deg |
tp | 2458465.518699044484 (2018-Dec-13.01869904) | 3.859e-05 | TDB |
period | 1501.459031214587 4.11 | 1.1862e-05 3.248e-08 | d yr |
n | .2397667818540359 | 1.8942e-09 | deg/d |
Q | 3.153474909429476 | 1.6609e-08 | au |
|
| | Orbit Determination Parameters
Additional Information
|